Wind_Speed
42 46 47 46 43 41 41 45 47 49 52 57 58 53 60 60 62 60 59 58 58 57 58 58 58 58 57 57 54 53 54 58
38 41 44 45 45 47 48 49 52 51 51 54 56 58 58 62 65 67 67 63 61 61 60 60 62 62 63 61 61 61 61 60
39 38 39 41 43 45 48 49 50 53 54 58 61 64 66 66 66 65 63 64 66 65 66 69 66 66 65 65 66 64 64 62
42 43 45 45 47 49 51 52 54 56 58 60 61 62 65 66 64 64 67 68 71 72 71 70 69 67 67 65 67 67 64 62
37 40 42 44 46 49 51 53 56 58 60 60 62 64 66 69 70 71 71 73 72 73 71 70 71 70 69 66 66 65 65 63
35 38 38 40 43 46 47 48 49 50 53 54 57 59 63 66 71 75 78 77 75 74 73 73 75 75 74 74 75 71 70 67
37 36 37 41 40 40 43 45 52 53 56 59 62 68 68 67 66 65 68 75 79 78 77 78 78 78 80 80 81 80 77 72
49 48 50 51 52 53 58 58 62 63 65 68 73 76 75 77 77 77 76 72 74 79 81 82 84 82 83 83 83 83 82 79
56 57 57 59 61 63 65 67 72 72 74 78 80 85 86 83 83 81 82 81 80 82 85 85 86 87 84 83 85 86 85 86
61 63 64 65 66 67 69 72 76 80 81 85 89 93 93 93 90 87 87 87 91 89 87 88 89 88 88 87 85 87 88 88
61 63 64 66 69 72 74 78 80 82 85 92 95 95 99 98 95 92 93 95 97 98 96 94 92 89 88 88 89 90 89 91
65 67 70 69 70 76 79 82 90 93 97 99 100 102 102 100 98 96 99 102 101 104 103 96 91 88 89 91 89 90 90 90
71 70 73 79 82 84 89 89 95 99 103 104 107 105 104 103 103 104 99 97 96 97 96 93 91 87 88 91 92 91 92 90
74 76 83 83 87 92 94 98 100 107 107 113 111 107 96 96 93 94 94 92 92 91 92 94 90 87 86 89 91 84 83 82
81 84 88 94 96 97 100 105 109 112 115 115 105 100 92 90 90 91 89 89 90 89 88 86 83 77 76 76 74 73 72 68
89 93 99 103 106 105 107 112 118 110 119 105 97 91 90 88 88 87 88 88 83 82 77 76 74 70 66 67 65 64 64 61
98 104 109 111 114 112 113 119 125 122 105 96 91 87 87 85 87 85 81 78 74 72 72 70 65 62 60 57 54 54 53 56
106 109 114 116 116 118 119 124 123 111 97 89 85 83 84 85 83 79 75 73 69 65 61 60 54 51 50 48 46 46 43 47
114 116 118 119 120 123 128 123 113 96 90 88 85 84 83 81 77 73 70 64 59 54 54 52 50 49 47 44 43 41 43 42
115 117 118 121 125 128 122 116 100 90 89 87 85 82 80 77 73 67 60 54 52 53 51 48 45 45 45 42 44 43 44 40
Wind_Direction
259 258 258 261 269 275 276 279 282 281 279 279 284 283 289 289 290 291 291 292 294 295 294 293 293 292 293 294 295 295 293 297
260 260 260 264 269 272 277 278 278 279 278 277 278 282 284 285 286 287 288 292 293 290 289 288 288 289 292 291 290 291 293 294
274 271 268 269 271 273 275 274 273 274 278 280 279 279 280 284 288 291 291 290 288 286 287 287 287 288 287 285 287 288 291 292
270 274 276 279 281 281 281 281 281 281 281 280 281 282 284 289 290 287 284 281 283 284 285 285 283 283 283 283 285 287 287 288
273 273 275 276 276 276 277 279 281 284 288 290 290 289 288 285 282 283 283 284 285 283 285 283 282 285 283 281 283 283 283 283
282 281 281 282 283 284 289 289 290 291 290 290 292 293 294 291 287 284 284 284 283 284 283 282 283 282 281 279 279 280 279 278
278 279 281 281 287 281 288 289 298 293 295 301 304 306 303 302 299 293 289 284 282 280 281 280 279 278 278 279 280 281 278 277
287 287 286 287 287 287 290 295 296 297 302 304 306 309 305 301 298 298 297 290 285 283 283 282 282 280 279 279 278 277 277 277
290 291 290 290 289 290 293 293 294 298 300 304 304 306 306 302 299 295 292 290 285 282 281 281 281 281 279 277 275 274 274 275
287 288 290 292 291 291 294 295 299 302 301 304 306 306 304 303 298 294 292 286 284 285 282 279 281 278 277 276 276 275 274 272
282 283 284 285 287 289 292 294 300 300 302 305 305 305 304 300 296 291 288 286 284 283 285 283 280 278 277 276 277 273 271 270
289 290 290 292 294 295 297 302 307 307 307 304 304 302 301 296 291 286 286 287 284 283 282 282 279 276 276 275 273 270 269 269
292 295 299 301 302 305 305 304 303 303 305 303 302 300 296 293 287 286 287 285 283 282 283 281 280 277 276 276 273 272 271 269
293 298 301 301 302 303 306 304 304 305 303 303 299 298 295 290 289 287 286 285 284 284 284 282 279 279 277 274 274 274 271 271
294 297 302 304 305 305 306 308 306 305 305 303 299 297 294 292 290 288 287 286 286 285 283 281 280 279 276 274 273 276 274 270
296 301 303 306 308 305 304 307 308 304 306 300 297 294 293 290 290 288 286 285 287 286 286 285 283 282 278 277 276 275 275 273
300 303 305 305 306 307 304 303 304 305 302 298 296 293 291 290 288 287 288 288 288 287 285 283 282 280 278 274 272 271 272 272
300 301 301 303 304 304 304 303 305 303 298 296 294 293 291 291 291 291 291 291 290 285 282 281 280 278 275 272 267 263 259 262
300 301 301 302 302 301 303 304 305 300 298 297 296 295 293 292 293 292 292 290 285 282 282 280 278 275 272 268 260 255 251 250
302 301 301 301 301 303 304 305 301 297 297 297 297 295 295 296 295 293 288 281 279 278 277 277 280 273 266 261 255 249 247 245
Height
10743 10743 10743 10742 10741 10740 10739 10737 10736 10735 10733 10732 10730 10727 10725 10723 10721 10718 10716 10714 10713 10712 10710 10709 10708 10707 10706 10704 10705 10707 10707 10706
10736 10735 10734 10733 10731 10729 10728 10726 10724 10723 10722 10720 10719 10717 10714 10711 10709 10707 10705 10702 10702 10700 10699 10697 10696 10695 10693 10692 10690 10692 10694 10693
10729 10727 10725 10723 10721 10719 10717 10716 10713 10711 10710 10709 10707 10705 10703 10702 10700 10696 10693 10691 10689 10688 10686 10684 10682 10681 10680 10679 10678 10678 10677 10679
10718 10717 10716 10714 10712 10709 10707 10705 10703 10701 10699 10698 10696 10694 10691 10688 10685 10683 10680 10677 10675 10673 10671 10670 10669 10667 10667 10665 10664 10664 10663 10664
10708 10706 10705 10703 10701 10699 10697 10694 10692 10690 10687 10684 10681 10679 10676 10673 10670 10667 10663 10661 10658 10656 10655 10654 10652 10652 10650 10650 10650 10650 10649 10649
10698 10697 10695 10694 10691 10689 10687 10684 10681 10677 10674 10671 10669 10666 10662 10658 10655 10651 10648 10645 10642 10640 10637 10635 10635 10634 10633 10632 10633 10633 10634 10635
10690 10688 10685 10682 10681 10678 10675 10673 10670 10666 10662 10658 10654 10650 10645 10641 10638 10635 10631 10627 10623 10620 10619 10617 10615 10615 10614 10613 10612 10612 10614 10615
10680 10679 10676 10673 10670 10666 10663 10658 10654 10650 10646 10641 10637 10632 10627 10622 10617 10613 10610 10606 10602 10599 10597 10595 10593 10592 10592 10592 10590 10590 10591 10592
10667 10664 10661 10658 10654 10650 10646 10641 10637 10632 10627 10622 10617 10611 10606 10600 10594 10590 10586 10583 10579 10575 10573 10571 10569 10569 10568 10566 10565 10564 10567 10567
10654 10650 10647 10643 10639 10634 10630 10625 10620 10614 10608 10603 10596 10590 10583 10577 10571 10566 10562 10558 10555 10551 10547 10545 10544 10542 10541 10539 10538 10538 10538 10540
10640 10637 10633 10629 10625 10620 10615 10610 10604 10596 10589 10582 10575 10567 10560 10552 10547 10542 10537 10533 10529 10524 10520 10519 10517 10517 10514 10512 10508 10509 10510 10510
10625 10622 10618 10613 10608 10602 10596 10589 10580 10571 10564 10557 10550 10542 10534 10527 10520 10515 10510 10505 10500 10495 10490 10487 10489 10488 10485 10482 10479 10478 10477 10480
10607 10602 10598 10592 10585 10579 10571 10564 10557 10550 10540 10532 10524 10516 10508 10501 10494 10488 10481 10476 10470 10467 10461 10457 10457 10460 10459 10451 10446 10447 10446 10449
10590 10586 10579 10573 10567 10560 10553 10541 10533 10524 10514 10506 10497 10489 10479 10473 10464 10458 10452 10446 10442 10437 10433 10427 10425 10428 10427 10424 10414 10417 10417 10419
10571 10562 10557 10551 10545 10537 10527 10517 10508 10496 10486 10474 10463 10456 10449 10442 10435 10430 10424 10419 10414 10409 10404 10401 10398 10398 10399 10396 10393 10389 10390 10396
10546 10540 10532 10524 10518 10510 10501 10490 10479 10465 10455 10443 10436 10429 10422 10416 10410 10404 10399 10395 10390 10385 10380 10375 10375 10374 10373 10373 10373 10369 10368 10372
10525 10518 10508 10498 10491 10481 10472 10463 10452 10440 10425 10417 10409 10403 10397 10391 10385 10379 10374 10370 10366 10362 10358 10355 10353 10353 10351 10354 10355 10354 10355 10351
10500 10493 10483 10473 10466 10455 10447 10436 10423 10412 10401 10392 10386 10380 10372 10365 10359 10355 10351 10346 10343 10341 10338 10336 10336 10336 10336 10337 10339 10342 10344 10343
10477 10468 10459 10448 10441 10432 10420 10407 10397 10385 10377 10368 10361 10355 10348 10342 10337 10333 10329 10326 10323 10322 10321 10320 10321 10322 10322 10324 10326 10329 10332 10335
10454 10444 10434 10425 10414 10403 10390 10380 10371 10363 10355 10347 10339 10332 10325 10320 10316 10312 10309 10306 10305 10305 10305 10306 10307 10307 10309 10311 10314 10317 10320 10323